ELEKTRON 1 DEB, 750

Orbit data source: Space-Track

ELEKTRON 1 DEB, 750 is space debris in LEO originally from a launch on Thu, 30 Jan 1964 UTC launched from the Tyuratam Missile And Space Complex (TTMTR). Debris objects in space refer to the collection of defunct objects orbiting the Earth. Examples of debris include non-operational satellites, rocket bodies, and fragments generated from explosions, collisions, or faulty payload assembly.

Loading next visibility...
Identifier
750, 1964-006C
Orbit
LEO
Country
Flag of CISCIS
Related business
Manufacturer
OKB-1
Mission
Spacecraft
Bus & Motor
ADAPTER, Unknown motor
Mass
Unknown
Launch date (UTC)
1964-01-30 (62 years ago)
Launch vehicle
Unknown
Launch site
Tyuratam Missile And Space Complex (TTMTR)
Object type
Payload
Rocket body
Debris
Shape & HBR
Unknown shape, 0.3 m
Radar Cross Section
Medium (>0.1 m² and <1 m²)

Expand to show TLE details & history
Last TLE update: 7 hours ago

TLE from 7 hours ago
0 ELEKTRON 1 DEB
1   750U 64006C   26163.85109030  .00020706  00000-0  19058-2 0  9992
2   750  60.7469 353.6013 1385002  62.4789 311.0011 12.51481754846117
Epoch: 2026-06-12T20:25Z
TLE epoch observation values (Epoch: 2026-06-12T20:25:34.201Z)
Latitude
-0.00008°
Longitude
146.03414°
Altitude
845.608 km
Speed
7.716 km/s
True Right ascension
23h 34m 24s
True Declination
0° 00' 00"
Sunlit
Object was in daylight at epoch
Visualization orbit readout
Latitude
Unknown
Longitude
Unknown
Altitude
Unknown
Speed
Unknown
Apparent Right ascension
Unknown
Apparent Declination
Unknown
Sunlit
N/A
Visualization observer readout
Local Sidereal Time
13:37:13
Azimuth
Unknown
Elevation
Unknown
Doppler factor
Unknown
Orbital elements
Apogee altitude
2,542.723 km
Perigee altitude
372.252 km
Semi-major axis
7,835.625 km
Eccentricity
0.1385
Inclination
60.7469°
RAAN
353.6013°
Arg. of periapsis
62.4789°
True anomaly
297.62181°
Mean anomaly
311.0011°
Eccentric anomaly
304.45797°
Mean motion
3.1292 °/min
Orbital period
115.05 mins
BSTAR
0.0019058
Loading maneuver chart data...
Computing Atmospheric mass density...

Documentation

Showing up to 5 results
|